SCP
0 0 0 0 0 0 0 0 0 0 0 0 0 0 0 0 0 0 0 0 0 0 0 0 0 0 0 0 0 0 0 0 0 0 0 0 0 0 0 0 0 0 0
0 0 0 0 0 0 0 0 0 0 0 0 0 0 0 0 0 0 0 0 0 0 0 0 0 0 0 0 0 0 0 0 0 0 0 0 0 0 0 0 0 0 0
0 0 0 0 0 0 0 0 0 0 0 0 0 0 0 0 0 0 0 0 0 0 0 0 0 0 0 0 -0 0 -0 0 0 0 0 0 0 0 0 0 0 0 0
0 0 0 0 0 0 0 0 0 0 0 0 0 0 0 0 0 0 0 0 0 0 0 0 0 0 0 -0 0 0 0 0 0 0 0 0 0 0 0 0 0 0 0
0 0 0 0 0 0 0 0 0 0 0 0 0 0 0 0 0 0 0 0 0 0 0 0 0 -0 0 0 0 0 0 0 0 0 -0 0 0 0 0 0 0 0 0
0 0 0 0 0 0 0 0 0 0 0 0 0 0 0 0 0 0 0 0 0 0 -0 -0 -0 0 0 0 0 0 0 0 0 0 0 0 0 0 0 0 0 0 0
0 -0 -0 0 0 0 0 0 0 0 0 0 0 0 0 0 0 0 0 0 -0 -0 -0 -0 0 0 0 0 0 0 -0 0 0 0 0 0 0 0 0 0 0 0 0
0 0 0 0 0 0 0 0 0 0 0 0 0 0 0 0 0 0 0 0 -0 -0 -0 -0 0 0 0 0 0 0 0 0 0 -0 0 0 0 0 0 0 0 0 0
0 0 0 0 0 0 0 0 0 0 0 0 0 0 0 0 0 0 0 0 -0 -0 -0 0 0 0 0 0 0 0 0 0 0 0 0 0 0 0 0 0 0 0 0
0 0 -0 -0 0 0 0 0 0 0 0 0 0 0 0 0 0 0 0 0 -0 -0 -0 0 0 0 0 0 0 0 0 0 0 0 -0 0 0 0 0 0 0 0 0
0 -0 -0 0 0 0 0 0 0 0 0 0 0 0 0 0 0 0 0 -0 -0 -0 -0 0 0 0 0 0 0 0 0 0 0 0 0 0 0 0 0 0 0 0 0
0 0 -0 -0 0 0 0 0 0 0 0 0 0 0 0 0 0 0 0 -0 -0 0 0 -0 0 0 0 0 0 0 0 0 0 0 -0 0 0 0 0 0 0 0 0
-0 -0 -0 -0 0 0 -0 0 0 0 0 0 0 0 0 0 0 0 0 0 -0 -0 0 0 0 0 0 0 0 0 0 0 0 0 -0 0 0 0 0 0 0 0 0
-0 -0 -0 -0 0 -0 -0 0 0 0 0 0 0 0 0 0 0 0 0 0 0 -0 -0 0 0 0 0 0 0 0 0 0 0 0 0 0 0 0 0 0 0 0 0
-0 -0 -0 -0 -0 -0 -0 0 0 0 0 0 0 0 0 0 0 -0 -0 -0 0 0 0 -0 -0 0 0 0 0 0 0 0 0 0 0 0 0 0 0 0 0 0 0
-0 -0 -0 -0 -0 -0 -0 0 0 -0 -0 0 0 0 -0 -0 -0 -0 -0 -0 -0 -0 -0 0 -0 -0 0 0 0 0 0 0 0 0 0 0 0 0 -0 0 0 0 0
-0 -0 -0 -0 -0 -0 -0 -0 -0 -0 -0 -0 -0 -0 -0 -0 -0 -0 -0 -0 -0 -0 0 0 0 0 0 0 0 0 0 0 0 0 0 -0 0 -0 0 0 0 -0 -0
-0 -0 -0 -0 -0 -0 -0 0 0 0 -0 -0 -0 -0 0 -0 -0 -0 -0 0 -0 0 0 0 -0 -0 -0 0 0 0 0 0 0 0 0 0 0 -0 -0 -0 0 0 0
-0 -0 -0 -0 -0 -0 -0 -0 0 0 0 -0 -0 -0 -0 0 0 -0 0 0 0 0 0 0 0 -0 0 0 0 0 0 0 0 0 0 0 -0 -0 -0 -0 0 0 0
-0 -0 -0 -0 -0 -0 -0 -0 0 0 0 0 0 0 -0 0 0 0 0 0 0 0 0 -0 0 0 0 0 0 0 0 0 0 0 0 0 0 0 0 0 0 0 0
-0 -0 -0 -0 -0 -0 -0 -0 -0 -0 0 0 0 0 -0 0 0 0 0 0 0 0 0 -0 -0 -0 0 0 0 0 0 0 0 0 0 0 0 0 0 0 0 0 -0
-0 -0 -0 -0 -0 -0 -0 -0 -0 0 0 0 -0 -0 0 -0 0 -0 0 0 0 0 0 0 0 0 0 0 0 0 0 0 -0 0 0 -0 -0 0 0 0 0 0 0
-0 -0 -0 -0 -0 -0 -0 -0 0 0 0 -0 -0 -0 -0 0 -0 -0 -0 0 0 0 0 0 0 0 0 -0 -0 0 0 0 0 -0 -0 -0 -0 0 -0 -0 0 0 -0
0 -0 -0 -0 -0 -0 -0 -0 -0 -0 -0 -0 0 -0 -0 -0 0 0 0 0 0 0 0 0 0 0 0 -0 -0 -0 -0 -0 -0 -0 -0 -0 0 0 0 0 0 -0 -0
0 0 -0 -0 -0 -0 -0 -0 -0 -0 -0 -0 -0 -0 0 0 0 0 0 0 0 0 0 0 0 0 0 -0 0 0 -0 -0 -0 0 -0 -0 -0 -0 -0 -0 -0 -0 0
0 0 0 0 -0 -0 -0 -0 -0 -0 -0 -0 -0 -0 0 0 0 0 0 0 0 0 0 0 0 0 0 -0 -0 -0 -0 -0 -0 0 -0 -0 -0 -0 -0 -0 -0 0 0
Wind_Speed_500mb
77 57 50 64 61 58 57 61 58 46 38 28 21 14 10 17 19 24 23 18 19 21 22 22 24 24 21 21 22 24 29 26 25 23 23 20 25 21 22 26 21 25 25
50 47 43 51 61 65 70 65 51 40 32 23 18 11 13 17 21 23 19 16 17 21 23 20 20 18 18 20 21 24 33 28 27 22 21 14 20 20 21 20 23 24 24
43 38 38 50 59 69 74 59 43 36 28 20 14 9 11 16 19 17 13 15 16 15 13 16 18 15 14 13 15 23 31 30 29 22 15 11 10 22 21 17 22 20 20
41 35 41 45 58 72 62 47 39 34 25 17 11 7 11 16 13 13 9 10 9 4 5 12 14 12 12 14 17 20 24 26 28 25 21 14 13 15 12 17 14 16 17
35 30 34 44 62 65 52 41 37 30 20 14 10 5 13 14 13 12 11 9 7 3 7 9 10 10 9 12 17 23 26 24 22 26 34 22 5 14 14 19 20 15 13
24 27 35 50 64 55 47 41 36 24 15 14 10 4 12 11 13 11 12 11 10 9 10 12 9 8 7 11 16 23 25 22 19 23 27 24 17 19 23 32 31 30 25
33 39 52 69 64 55 46 40 33 20 16 14 10 3 11 9 13 16 14 8 4 16 17 14 11 9 11 11 11 19 23 22 19 22 26 28 18 16 25 38 41 38 34
39 46 63 70 60 52 43 37 29 18 18 18 11 1 7 11 12 16 11 1 10 17 20 17 10 10 12 7 8 13 20 17 15 24 28 27 22 25 29 29 40 46 43
46 53 67 63 56 46 40 35 25 21 17 17 12 5 5 12 12 17 13 6 15 19 21 17 10 6 7 5 6 10 12 13 13 18 23 22 25 33 26 23 39 57 39
46 54 66 61 49 39 36 33 24 20 20 16 11 7 1 11 11 13 14 9 16 21 21 17 13 5 7 6 7 6 7 10 15 16 16 19 26 34 22 37 35 50 53
53 59 66 57 44 39 39 32 27 24 22 17 15 7 2 9 7 9 5 8 14 23 20 17 14 5 6 6 8 11 9 12 12 13 13 16 20 36 37 30 40 43 41
54 61 65 57 48 44 41 33 29 25 20 17 13 9 3 6 4 6 6 5 16 19 17 13 11 12 10 11 15 14 16 12 10 11 18 20 16 30 40 32 50 39 33
54 61 63 57 49 46 41 33 30 26 21 18 17 9 2 2 3 5 11 11 15 19 18 14 16 20 19 22 19 18 19 18 17 17 18 19 25 36 37 35 34 37 34
56 64 66 57 49 45 40 33 30 27 24 19 19 12 5 3 5 14 17 18 21 25 22 22 23 23 21 19 19 18 16 16 18 17 21 24 23 28 33 33 34 35 38
58 69 70 59 53 47 42 34 34 30 26 22 20 14 12 6 11 24 26 29 30 26 24 25 26 24 21 19 17 20 16 16 20 21 24 23 20 22 35 46 42 42 38
64 69 67 61 57 50 46 37 38 34 30 26 23 19 17 12 20 29 30 29 27 26 24 21 20 21 19 16 13 7 3 6 16 24 26 29 34 44 37 33 28 29 53
70 72 70 64 58 53 50 43 41 38 34 29 27 27 24 20 24 30 30 26 21 21 21 18 15 16 18 18 18 11 11 16 23 30 33 47 44 43 40 43 50 49 33
71 71 68 65 55 50 51 43 42 42 38 34 31 34 31 22 23 27 26 23 19 19 18 15 15 19 23 22 24 17 27 26 28 34 36 54 53 45 48 46 39 37 41
71 69 65 62 53 53 54 50 46 46 41 40 35 37 34 26 30 24 21 18 16 18 17 15 17 21 31 26 20 24 29 34 40 36 39 41 45 52 41 32 28 28 28
62 66 65 65 54 56 58 57 52 51 47 44 41 36 40 33 29 23 21 16 13 15 17 17 18 20 29 30 25 27 33 38 38 48 54 52 49 44 33 25 32 30 28
63 65 67 70 60 59 62 64 59 56 49 44 41 38 43 38 31 27 22 20 11 13 16 20 22 25 27 30 29 29 30 35 43 47 45 47 46 34 27 31 31 29 27
63 67 71 71 67 62 65 67 66 52 49 47 46 42 44 42 39 29 30 23 14 12 18 19 22 23 26 26 28 29 25 28 35 38 41 39 32 29 31 32 28 22 16
72 68 75 74 73 71 68 66 62 58 53 48 49 47 41 45 43 37 33 29 24 16 19 24 25 25 26 25 24 26 26 25 25 29 30 29 29 32 34 33 27 20 15
80 73 77 78 77 76 72 61 57 57 57 53 54 50 47 49 47 43 37 34 31 26 19 26 31 32 30 29 29 32 31 28 26 27 31 31 32 33 33 33 31 27 24
87 80 75 77 77 78 74 68 61 60 59 57 56 55 52 48 48 47 45 43 36 30 23 23 28 37 39 36 33 32 33 32 31 31 31 37 39 39 37 36 35 33 32
87 84 76 74 72 69 72 71 65 64 62 61 62 61 58 57 53 49 49 46 40 34 29 22 16 31 27 32 35 33 29 29 31 35 38 39 41 44 43 42 41 40 38
Wind_Direction_500mb
296 292 282 249 235 222 213 202 199 204 210 208 211 224 281 301 308 315 300 278 273 274 271 262 240 232 246 256 248 237 214 205 199 199 202 208 210 222 228 216 226 226 230
284 282 267 242 231 217 199 197 198 207 207 203 216 238 287 308 311 318 301 285 288 285 269 250 225 236 245 252 246 220 193 193 188 189 187 188 207 224 227 227 237 230 223
270 267 239 225 216 200 193 188 196 203 197 201 212 248 301 320 319 319 306 300 301 291 255 222 220 234 243 246 210 189 187 194 186 182 180 160 196 205 217 219 215 225 224
273 241 225 212 200 188 182 184 194 194 192 199 209 254 322 339 329 327 319 311 313 302 183 195 214 221 220 209 184 178 186 190 189 193 183 173 192 174 164 193 193 217 208
260 242 218 197 182 177 177 184 187 185 191 200 210 279 343 337 336 326 320 292 298 208 206 189 187 193 203 187 187 185 183 190 207 201 179 187 143 219 198 167 178 173 202
218 200 189 172 168 171 178 181 184 180 188 199 209 304 349 343 341 339 323 283 271 212 183 164 155 163 173 178 184 181 185 190 203 200 209 210 211 196 197 161 166 176 179
172 173 165 166 168 175 180 182 180 180 186 190 194 304 354 352 340 341 328 289 225 187 175 153 140 137 133 129 155 185 190 198 212 216 211 206 219 221 192 173 167 168 172
170 167 168 168 172 179 179 180 179 183 185 180 186 220 6 3 347 346 349 24 157 170 169 160 141 140 105 106 137 183 190 192 229 210 206 220 236 199 191 180 154 142 164
170 168 169 170 176 177 178 178 176 179 180 176 189 186 52 13 10 17 21 115 148 163 168 165 159 141 132 110 118 158 194 226 229 200 204 206 198 198 198 199 177 168 153
170 167 171 174 176 177 175 171 175 173 170 175 174 139 20 11 27 36 47 98 149 162 169 169 172 117 130 113 132 160 199 193 186 194 193 200 193 190 169 155 174 174 158
170 168 173 174 173 172 176 174 175 170 171 173 175 183 278 360 16 31 82 103 148 161 162 170 184 176 137 128 115 125 120 144 151 157 157 142 165 181 178 171 177 173 174
169 171 172 172 173 175 178 181 177 176 175 176 178 177 209 349 11 25 125 112 164 166 169 178 175 150 129 110 100 96 91 104 130 166 163 157 160 181 174 173 175 170 166
171 173 174 175 176 177 180 181 180 181 185 187 188 189 173 13 25 67 126 128 144 158 158 147 139 133 119 109 98 97 101 99 95 93 132 144 157 172 187 176 176 172 173
175 174 178 178 180 180 181 181 180 178 180 180 180 174 125 95 58 122 127 135 134 137 136 131 134 135 128 110 104 104 101 94 92 103 129 128 154 159 164 173 164 166 162
180 180 181 180 183 184 184 186 182 180 180 180 182 164 143 95 103 125 127 126 127 128 128 127 131 132 131 132 115 113 98 87 93 112 123 123 154 153 154 161 157 154 155
188 186 184 184 187 186 188 189 185 185 186 184 181 166 150 106 116 128 125 126 126 127 129 128 124 131 136 142 148 153 91 119 123 130 128 144 135 131 133 152 163 154 155
191 189 190 188 188 187 190 190 188 187 192 186 180 168 158 121 121 124 117 119 133 138 133 131 130 145 143 141 144 115 127 128 133 139 135 136 132 137 137 130 137 143 145
196 193 192 190 189 186 190 187 189 189 193 191 184 177 170 157 130 130 118 105 122 142 148 137 131 145 152 148 142 121 128 121 124 136 137 152 141 142 135 131 134 134 145
199 195 192 187 184 186 187 189 191 192 193 195 189 186 184 183 173 158 135 108 97 131 142 139 127 144 142 135 136 138 128 126 123 129 156 157 151 149 140 138 139 147 153
201 194 192 188 184 185 187 190 193 195 196 194 191 188 188 185 182 175 171 148 98 127 132 138 133 136 150 138 132 134 135 134 131 134 131 139 144 143 139 136 140 143 142
203 192 192 189 185 186 189 194 196 199 193 195 191 193 193 190 187 184 181 172 150 136 134 134 138 140 141 139 135 146 147 146 142 142 145 145 148 147 141 133 132 133 126
200 192 192 193 189 189 192 196 200 192 193 197 198 197 197 195 195 192 185 182 182 158 164 150 143 149 152 150 143 138 140 141 151 153 152 153 158 160 157 148 142 144 147
202 193 192 194 194 194 196 199 201 196 194 199 200 200 199 202 201 200 199 195 194 190 181 181 170 160 161 163 164 159 157 154 160 166 166 173 176 177 177 175 178 182 185
202 194 192 197 199 198 201 205 199 195 198 200 202 198 204 205 206 208 211 208 207 204 203 197 194 189 182 176 172 168 164 163 167 171 180 178 180 182 188 196 201 204 209
202 196 193 198 204 202 203 206 206 200 199 202 205 203 203 208 207 211 212 215 219 222 218 220 210 205 203 196 190 188 186 183 186 191 195 200 202 203 204 204 208 212 216
206 198 197 201 207 205 205 208 209 206 204 203 206 207 205 209 209 210 216 219 220 220 228 238 245 224 219 212 211 207 206 210 211 211 214 213 214 215 214 215 218 219 220
Wind_Speed_850mb
77 57 50 64 61 58 57 61 58 46 38 28 21 14 10 17 19 24 23 18 19 21 22 22 24 24 21 21 22 24 29 26 25 23 23 20 25 21 22 26 21 25 25
50 47 43 51 61 65 70 65 51 40 32 23 18 11 13 17 21 23 19 16 17 21 23 20 20 18 18 20 21 24 33 28 27 22 21 14 20 20 21 20 23 24 24
43 38 38 50 59 69 74 59 43 36 28 20 14 9 11 16 19 17 13 15 16 15 13 16 18 15 14 13 15 23 31 30 29 22 15 11 10 22 21 17 22 20 20
41 35 41 45 58 72 62 47 39 34 25 17 11 7 11 16 13 13 9 10 9 4 5 12 14 12 12 14 17 20 24 26 28 25 21 14 13 15 12 17 14 16 17
35 30 34 44 62 65 52 41 37 30 20 14 10 5 13 14 13 12 11 9 7 3 7 9 10 10 9 12 17 23 26 24 22 26 34 22 5 14 14 19 20 15 13
24 27 35 50 64 55 47 41 36 24 15 14 10 4 12 11 13 11 12 11 10 9 10 12 9 8 7 11 16 23 25 22 19 23 27 24 17 19 23 32 31 30 25
33 39 52 69 64 55 46 40 33 20 16 14 10 3 11 9 13 16 14 8 4 16 17 14 11 9 11 11 11 19 23 22 19 22 26 28 18 16 25 38 41 38 34
39 46 63 70 60 52 43 37 29 18 18 18 11 1 7 11 12 16 11 1 10 17 20 17 10 10 12 7 8 13 20 17 15 24 28 27 22 25 29 29 40 46 43
46 53 67 63 56 46 40 35 25 21 17 17 12 5 5 12 12 17 13 6 15 19 21 17 10 6 7 5 6 10 12 13 13 18 23 22 25 33 26 23 39 57 39
46 54 66 61 49 39 36 33 24 20 20 16 11 7 1 11 11 13 14 9 16 21 21 17 13 5 7 6 7 6 7 10 15 16 16 19 26 34 22 37 35 50 53
53 59 66 57 44 39 39 32 27 24 22 17 15 7 2 9 7 9 5 8 14 23 20 17 14 5 6 6 8 11 9 12 12 13 13 16 20 36 37 30 40 43 41
54 61 65 57 48 44 41 33 29 25 20 17 13 9 3 6 4 6 6 5 16 19 17 13 11 12 10 11 15 14 16 12 10 11 18 20 16 30 40 32 50 39 33
54 61 63 57 49 46 41 33 30 26 21 18 17 9 2 2 3 5 11 11 15 19 18 14 16 20 19 22 19 18 19 18 17 17 18 19 25 36 37 35 34 37 34
56 64 66 57 49 45 40 33 30 27 24 19 19 12 5 3 5 14 17 18 21 25 22 22 23 23 21 19 19 18 16 16 18 17 21 24 23 28 33 33 34 35 38
58 69 70 59 53 47 42 34 34 30 26 22 20 14 12 6 11 24 26 29 30 26 24 25 26 24 21 19 17 20 16 16 20 21 24 23 20 22 35 46 42 42 38
64 69 67 61 57 50 46 37 38 34 30 26 23 19 17 12 20 29 30 29 27 26 24 21 20 21 19 16 13 7 3 6 16 24 26 29 34 44 37 33 28 29 53
70 72 70 64 58 53 50 43 41 38 34 29 27 27 24 20 24 30 30 26 21 21 21 18 15 16 18 18 18 11 11 16 23 30 33 47 44 43 40 43 50 49 33
71 71 68 65 55 50 51 43 42 42 38 34 31 34 31 22 23 27 26 23 19 19 18 15 15 19 23 22 24 17 27 26 28 34 36 54 53 45 48 46 39 37 41
71 69 65 62 53 53 54 50 46 46 41 40 35 37 34 26 30 24 21 18 16 18 17 15 17 21 31 26 20 24 29 34 40 36 39 41 45 52 41 32 28 28 28
62 66 65 65 54 56 58 57 52 51 47 44 41 36 40 33 29 23 21 16 13 15 17 17 18 20 29 30 25 27 33 38 38 48 54 52 49 44 33 25 32 30 28
63 65 67 70 60 59 62 64 59 56 49 44 41 38 43 38 31 27 22 20 11 13 16 20 22 25 27 30 29 29 30 35 43 47 45 47 46 34 27 31 31 29 27
63 67 71 71 67 62 65 67 66 52 49 47 46 42 44 42 39 29 30 23 14 12 18 19 22 23 26 26 28 29 25 28 35 38 41 39 32 29 31 32 28 22 16
72 68 75 74 73 71 68 66 62 58 53 48 49 47 41 45 43 37 33 29 24 16 19 24 25 25 26 25 24 26 26 25 25 29 30 29 29 32 34 33 27 20 15
80 73 77 78 77 76 72 61 57 57 57 53 54 50 47 49 47 43 37 34 31 26 19 26 31 32 30 29 29 32 31 28 26 27 31 31 32 33 33 33 31 27 24
87 80 75 77 77 78 74 68 61 60 59 57 56 55 52 48 48 47 45 43 36 30 23 23 28 37 39 36 33 32 33 32 31 31 31 37 39 39 37 36 35 33 32
87 84 76 74 72 69 72 71 65 64 62 61 62 61 58 57 53 49 49 46 40 34 29 22 16 31 27 32 35 33 29 29 31 35 38 39 41 44 43 42 41 40 38
Wind_Direction_850mb
296 292 282 249 235 222 213 202 199 204 210 208 211 224 281 301 308 315 300 278 273 274 271 262 240 232 246 256 248 237 214 205 199 199 202 208 210 222 228 216 226 226 230
284 282 267 242 231 217 199 197 198 207 207 203 216 238 287 308 311 318 301 285 288 285 269 250 225 236 245 252 246 220 193 193 188 189 187 188 207 224 227 227 237 230 223
270 267 239 225 216 200 193 188 196 203 197 201 212 248 301 320 319 319 306 300 301 291 255 222 220 234 243 246 210 189 187 194 186 182 180 160 196 205 217 219 215 225 224
273 241 225 212 200 188 182 184 194 194 192 199 209 254 322 339 329 327 319 311 313 302 183 195 214 221 220 209 184 178 186 190 189 193 183 173 192 174 164 193 193 217 208
260 242 218 197 182 177 177 184 187 185 191 200 210 279 343 337 336 326 320 292 298 208 206 189 187 193 203 187 187 185 183 190 207 201 179 187 143 219 198 167 178 173 202
218 200 189 172 168 171 178 181 184 180 188 199 209 304 349 343 341 339 323 283 271 212 183 164 155 163 173 178 184 181 185 190 203 200 209 210 211 196 197 161 166 176 179
172 173 165 166 168 175 180 182 180 180 186 190 194 304 354 352 340 341 328 289 225 187 175 153 140 137 133 129 155 185 190 198 212 216 211 206 219 221 192 173 167 168 172
170 167 168 168 172 179 179 180 179 183 185 180 186 220 6 3 347 346 349 24 157 170 169 160 141 140 105 106 137 183 190 192 229 210 206 220 236 199 191 180 154 142 164
170 168 169 170 176 177 178 178 176 179 180 176 189 186 52 13 10 17 21 115 148 163 168 165 159 141 132 110 118 158 194 226 229 200 204 206 198 198 198 199 177 168 153
170 167 171 174 176 177 175 171 175 173 170 175 174 139 20 11 27 36 47 98 149 162 169 169 172 117 130 113 132 160 199 193 186 194 193 200 193 190 169 155 174 174 158
170 168 173 174 173 172 176 174 175 170 171 173 175 183 278 360 16 31 82 103 148 161 162 170 184 176 137 128 115 125 120 144 151 157 157 142 165 181 178 171 177 173 174
169 171 172 172 173 175 178 181 177 176 175 176 178 177 209 349 11 25 125 112 164 166 169 178 175 150 129 110 100 96 91 104 130 166 163 157 160 181 174 173 175 170 166
171 173 174 175 176 177 180 181 180 181 185 187 188 189 173 13 25 67 126 128 144 158 158 147 139 133 119 109 98 97 101 99 95 93 132 144 157 172 187 176 176 172 173
175 174 178 178 180 180 181 181 180 178 180 180 180 174 125 95 58 122 127 135 134 137 136 131 134 135 128 110 104 104 101 94 92 103 129 128 154 159 164 173 164 166 162
180 180 181 180 183 184 184 186 182 180 180 180 182 164 143 95 103 125 127 126 127 128 128 127 131 132 131 132 115 113 98 87 93 112 123 123 154 153 154 161 157 154 155
188 186 184 184 187 186 188 189 185 185 186 184 181 166 150 106 116 128 125 126 126 127 129 128 124 131 136 142 148 153 91 119 123 130 128 144 135 131 133 152 163 154 155
191 189 190 188 188 187 190 190 188 187 192 186 180 168 158 121 121 124 117 119 133 138 133 131 130 145 143 141 144 115 127 128 133 139 135 136 132 137 137 130 137 143 145
196 193 192 190 189 186 190 187 189 189 193 191 184 177 170 157 130 130 118 105 122 142 148 137 131 145 152 148 142 121 128 121 124 136 137 152 141 142 135 131 134 134 145
199 195 192 187 184 186 187 189 191 192 193 195 189 186 184 183 173 158 135 108 97 131 142 139 127 144 142 135 136 138 128 126 123 129 156 157 151 149 140 138 139 147 153
201 194 192 188 184 185 187 190 193 195 196 194 191 188 188 185 182 175 171 148 98 127 132 138 133 136 150 138 132 134 135 134 131 134 131 139 144 143 139 136 140 143 142
203 192 192 189 185 186 189 194 196 199 193 195 191 193 193 190 187 184 181 172 150 136 134 134 138 140 141 139 135 146 147 146 142 142 145 145 148 147 141 133 132 133 126
200 192 192 193 189 189 192 196 200 192 193 197 198 197 197 195 195 192 185 182 182 158 164 150 143 149 152 150 143 138 140 141 151 153 152 153 158 160 157 148 142 144 147
202 193 192 194 194 194 196 199 201 196 194 199 200 200 199 202 201 200 199 195 194 190 181 181 170 160 161 163 164 159 157 154 160 166 166 173 176 177 177 175 178 182 185
202 194 192 197 199 198 201 205 199 195 198 200 202 198 204 205 206 208 211 208 207 204 203 197 194 189 182 176 172 168 164 163 167 171 180 178 180 182 188 196 201 204 209
202 196 193 198 204 202 203 206 206 200 199 202 205 203 203 208 207 211 212 215 219 222 218 220 210 205 203 196 190 188 186 183 186 191 195 200 202 203 204 204 208 212 216
206 198 197 201 207 205 205 208 209 206 204 203 206 207 205 209 209 210 216 219 220 220 228 238 245 224 219 212 211 207 206 210 211 211 214 213 214 215 214 215 218 219 220